This demonstration page uses our WeatherBlox Daily Observations layout. Learn more.

Left ArrowRight Arrow

53.62937, 11.41316

Hourly Observations for July 16, 2022

Temp ( °F °C ) Dew Point ( °F °C ) Humidity (%) Winds ( mph kmh ) Pressure ( in mb ) Visibility ( mi km ) Precip ( " mm )
12:20 am 00:20 Cloudy 57 14 48 9 72 72 VRB 2 4 30.03 1017 30 48 N/A
12:50 am 00:50 Mostly Cloudy 57 14 48 9 72 72 VRB 2 4 30.03 1017 30 48 N/A
1:20 am 01:20 Cloudy 59 15 52 11 77 77 VRB 3 6 30.03 1017 30 48 N/A
1:50 am 01:50 Cloudy 59 15 52 11 77 77 VRB 3 6 30.03 1017 30 48 N/A
2:20 am 02:20 Mostly Cloudy 57 14 52 11 82 82 SSW 3 6 30.00 1016 30 48 N/A
2:50 am 02:50 Cloudy 57 14 54 12 88 88 SSW 3 6 29.97 1015 30 48 N/A
3:20 am 03:20 Mostly Cloudy 57 14 54 12 88 88 VRB 5 7 29.97 1015 30 48 N/A
3:50 am 03:50 Mostly Cloudy 57 14 55 13 94 94 VRB 5 7 29.97 1015 4 7 N/A
4:20 am 04:20 Mostly Cloudy 57 14 55 13 94 94 VRB 6 9 29.97 1015 30 48 N/A
4:50 am 04:50 Mostly Cloudy 57 14 55 13 94 94 W 8 13 29.97 1015 4 6 N/A
5:20 am 05:20 Mostly Cloudy 57 14 55 13 94 94 WNW 8 13 29.97 1015 30 48 N/A
5:50 am 05:50 Mostly Sunny 55 13 54 12 94 94 WNW 8 13 29.97 1015 30 48 N/A
6:20 am 06:20 Partly Cloudy 55 13 54 12 94 94 WNW 8 13 29.97 1015 30 48 N/A
6:50 am 06:50 Partly Cloudy 55 13 54 12 94 94 WNW 7 11 30.00 1016 30 48 N/A
7:20 am 07:20 Mostly Sunny 57 14 54 12 88 88 NW 9 15 30.00 1016 30 48 N/A
7:50 am 07:50 Mostly Sunny 57 14 54 12 88 88 NW 12 19 30.00 1016 30 48 N/A
8:20 am 08:20 Mostly Sunny 59 15 52 11 77 77 NW 13 20 30.03 1017 30 48 N/A
8:50 am 08:50 Mostly Sunny 59 15 50 10 72 72 NW 13 20 30.03 1017 30 48 N/A
9:20 am 09:20 Partly Cloudy 61 16 50 10 68 68 NW 15 24 30.03 1017 30 48 N/A
9:50 am 09:50 Partly Cloudy 61 16 48 9 63 63 NW 15 24 30.06 1018 30 48 N/A
10:20 am 10:20 Partly Cloudy 61 16 46 8 59 59 WNW 16 26 30.06 1018 30 48 N/A
10:50 am 10:50 Mostly Sunny 63 17 46 8 56 56 WNW 15 24 30.06 1018 30 48 N/A
11:20 am 11:20 Partly Cloudy 63 17 46 8 56 56 NW 15 24 30.06 1018 30 48 N/A
11:50 am 11:50 Partly Cloudy 63 17 46 8 56 56 WNW 14 22 30.09 1019 30 48 N/A
12:20 pm 12:20 Partly Cloudy 63 17 46 8 56 56 WNW 14 22 30.09 1019 30 48 N/A
12:50 pm 12:50 Partly Cloudy 63 17 46 8 56 56 WNW 16 26 30.09 1019 30 48 N/A
1:20 pm 13:20 Partly Cloudy 64 18 48 9 56 56 NW 14 22 30.09 1019 30 48 N/A
1:50 pm 13:50 Partly Cloudy 64 18 45 7 49 49 NW 16 26 30.12 1020 30 48 N/A
2:20 pm 14:20 Mostly Sunny 68 20 46 8 46 46 WNW 15 24 30.12 1020 30 48 N/A
2:50 pm 14:50 Partly Cloudy 68 20 48 9 49 49 WNW 16 26 30.12 1020 30 48 N/A
3:20 pm 15:20 Mostly Sunny 68 20 46 8 46 46 NW 14 22 30.12 1020 30 48 N/A
3:50 pm 15:50 Mostly Sunny 68 20 46 8 46 46 WNW 16 26 30.15 1021 30 48 N/A
4:20 pm 16:20 Partly Cloudy 66 19 46 8 49 49 WNW 14 22 30.15 1021 30 48 N/A
4:50 pm 16:50 Mostly Sunny 66 19 46 8 49 49 NW 17 28 30.15 1021 30 48 N/A
5:20 pm 17:20 Partly Cloudy 66 19 46 8 49 49 WNW 15 24 30.18 1022 30 48 N/A
5:50 pm 17:50 Partly Cloudy 64 18 46 8 52 52 WNW 15 24 30.18 1022 30 48 N/A
6:20 pm 18:20 Mostly Cloudy 64 18 46 8 52 52 WNW 14 22 30.18 1022 30 48 N/A
6:50 pm 18:50 Mostly Cloudy 64 18 46 8 52 52 WNW 14 22 30.18 1022 30 48 N/A
7:20 pm 19:20 Mostly Cloudy 63 17 46 8 56 56 WNW 14 22 30.21 1023 30 48 N/A
7:50 pm 19:50 Partly Cloudy 63 17 46 8 56 56 NW 10 17 30.21 1023 30 48 N/A
8:20 pm 20:20 Mostly Cloudy 61 16 45 7 55 55 WNW 15 24 30.21 1023 30 48 N/A
8:50 pm 20:50 Partly Cloudy 61 16 46 8 59 59 WNW 10 17 30.21 1023 30 48 N/A
9:20 pm 21:20 Mostly Sunny 59 15 46 8 63 63 WNW 8 13 30.24 1024 30 48 N/A
9:50 pm 21:50 Mostly Clear 59 15 48 9 68 68 WNW 8 13 30.24 1024 30 48 N/A
10:20 pm 22:20 Mostly Clear 57 14 48 9 72 72 WNW 8 13 30.24 1024 30 48 N/A
10:50 pm 22:50 Mostly Clear 55 13 48 9 77 77 W 6 9 30.24 1024 30 48 N/A
11:20 pm 23:20 Mostly Clear 55 13 46 8 72 72 WNW 7 11 30.24 1024 30 48 N/A
11:50 pm 23:50 Mostly Clear 55 13 48 9 77 77 W 7 11 30.27 1025 30 48 N/A

Powered by AerisWeather